Location: Bothwell
(41.7170°N, 112.2589°W)
Time: 03:27:00
(UTC+00:00)

Vanguard 1 - Pass Details

Date: 11 May 2026
Orbit: 654 x 3816 km, 34.2° (Epoch: 10 June)

Event Time Altitude Azimuth Distance (km) Brightness Sun altitude
Rises 03:13:52 0° 264° (W) 5,148 14.7 -6.9°
Reaches altitude 10° 03:16:39 10° 262° (W) 4,479 14.2 -7.3°
Maximum altitude 03:30:04 66° 184° (S) 3,152 12.5 -9.4°
Drops below altitude 10° 03:52:02 10° 108° (ESE) 6,886 13.8 -12.7°
Enters shadow 03:52:13 10° 108° (ESE) 6,922 13.8 -12.7°
